パンスターズ彗星

358P/PanSTARRS (2023)

English version
Home page
Updated on May 13, 2024

---------------------------------------------------------------------

・ プロフィール

・ 写真集

・ 軌道要素

Epoch 2023 Sept. 13.0 TT = JDT 2460200.5
T 2023 Nov. 10.89677 TT                                 Rudenko
q   2.3948078            (2000.0)            P               Q
n   0.17639947     Peri.  299.72194     +0.88716868     -0.41992836
a   3.1487477      Node    85.68917     +0.46108129     +0.79025035
e   0.2394412      Incl.   11.05976     +0.01832407     +0.44627856
P   5.59
>From 252 observations 2001 Dec. 9-2023 Dec. 5, mean residual 0".4.
     Nongravitational parameters A1 = +0.19, A2 = -0.0226.

・ 光度変化

        m1 = 0.0 + 5 logΔ + 50 log r

---------------------------------------------------------------------

軌道要素はM.P.E.C. 2023-X256に掲載されたものです。
光度グラフはComet for Windowsで作成したものです。

---------------------------------------------------------------------

Copyright(C) Seiichi Yoshida (comet@aerith.net). All rights reserved.